Вернуться в каталог

FREGAT DEB

АктивенLEO
NORAD 47330·DEBRIS·🇷🇺 Russia

Запущен Jul 18, 2011 с Baikonur Cosmodrome

Loading…

Ближайшие Пролёты (ближайшие 24 часа)

TLE

СвежийSource: Space-Track

Эпоха: Sep 14, 2026, 08:42 UTC

1 47330U 11037NM  26257.36285729  .00110105  00000-0  12094-1 0  9998
2 47330  51.3935 254.3793 0795787   0.3612 359.7723 13.67186836250746

Отслеживайте FREGAT DEB в реальном времени с AllMySat

Download on the App Store